Time,TemperatureF,DewpointF,PressureIn,WindDirection,WindDirectionDegrees,WindSpeedMPH,WindSpeedGustMPH,Humidity,HourlyPrecipIn,Conditions,Clouds,dailyrainin,SoftwareType,DateUTC
2013-01-23 00:33:00,58.0,-99.9,-100.00,North,358,3.0,3.0,-999,-99.99,,,-99.99,,2013-01-23 08:33:00,
2013-01-23 00:43:00,58.0,-99.9,-100.00,North,358,3.0,3.0,-999,-99.99,,,-99.99,,2013-01-23 08:43:00,
2013-01-23 00:53:00,58.0,-99.9,-100.00,North,358,3.0,3.0,-999,-99.99,,,-99.99,,2013-01-23 08:53:00,
2013-01-23 02:10:00,60.0,-99.9,-100.00,NNE,33,1.0,3.0,-999,-99.99,,,-99.99,,2013-01-23 10:10:00,
2013-01-23 02:50:00,61.0,-99.9,-100.00,West,268,0.0,3.0,-999,-99.99,,,-99.99,,2013-01-23 10:50:00,
2013-01-23 02:53:00,60.0,-99.9,-100.00,NNE,33,1.0,3.0,-999,-99.99,,,-99.99,,2013-01-23 10:53:00,
2013-01-23 03:03:00,60.0,-99.9,-100.00,NNE,33,1.0,3.0,-999,-99.99,,,-99.99,,2013-01-23 11:03:00,
2013-01-23 03:20:00,61.0,-99.9,-100.00,North,11,3.0,4.0,-999,-99.99,,,-99.99,,2013-01-23 11:20:00,
2013-01-23 03:34:00,61.0,-99.9,-100.00,West,268,0.0,3.0,-999,-99.99,,,-99.99,,2013-01-23 11:34:00,
2013-01-23 03:43:00,61.0,-99.9,-100.00,West,268,0.0,3.0,-999,-99.99,,,-99.99,,2013-01-23 11:43:00,
2013-01-23 04:04:00,61.0,-99.9,-100.00,North,11,3.0,4.0,-999,-99.99,,,-99.99,,2013-01-23 12:04:00,
2013-01-23 04:13:00,61.0,-99.9,-100.00,North,11,3.0,4.0,-999,-99.99,,,-99.99,,2013-01-23 12:13:00,
2013-01-23 04:53:00,61.0,-99.9,-100.00,NW,322,2.0,4.0,-999,-99.99,,,-99.99,,2013-01-23 12:53:00,
2013-01-23 05:04:00,61.0,-99.9,-100.00,NW,322,2.0,4.0,-999,-99.99,,,-99.99,,2013-01-23 13:04:00,
2013-01-23 05:13:00,61.0,-99.9,-100.00,NW,322,2.0,4.0,-999,-99.99,,,-99.99,,2013-01-23 13:13:00,
2013-01-23 06:33:00,60.0,-99.9,-100.00,NW,305,3.0,6.0,-999,-99.99,,,-99.99,,2013-01-23 14:33:00,
2013-01-23 06:43:00,60.0,-99.9,-100.00,NW,305,3.0,6.0,-999,-99.99,,,-99.99,,2013-01-23 14:43:00,
2013-01-23 06:50:00,62.0,-99.9,-100.00,NNE,20,3.0,4.0,-999,-99.99,,,-99.99,,2013-01-23 14:50:00,
2013-01-23 06:53:00,60.0,-99.9,-100.00,NW,305,3.0,6.0,-999,-99.99,,,-99.99,,2013-01-23 14:53:00,
2013-01-23 07:33:00,62.0,-99.9,-100.00,NNE,20,3.0,4.0,-999,-99.99,,,-99.99,,2013-01-23 15:33:00,
2013-01-23 07:44:00,62.0,-99.9,-100.00,NNE,20,3.0,4.0,-999,-99.99,,,-99.99,,2013-01-23 15:44:00,
2013-01-23 08:20:00,66.0,-99.9,-100.00,ESE,111,4.0,4.0,-999,-99.99,,,-99.99,,2013-01-23 16:20:00,
2013-01-23 09:04:00,66.0,-99.9,-100.00,ESE,111,4.0,4.0,-999,-99.99,,,-99.99,,2013-01-23 17:04:00,
2013-01-23 09:10:00,67.0,-99.9,-100.00,NE,50,4.0,5.0,-999,-99.99,,,-99.99,,2013-01-23 17:10:00,
2013-01-23 09:13:00,66.0,-99.9,-100.00,ESE,111,4.0,4.0,-999,-99.99,,,-99.99,,2013-01-23 17:13:00,
2013-01-23 09:53:00,67.0,-99.9,-100.00,NE,50,4.0,5.0,-999,-99.99,,,-99.99,,2013-01-23 17:53:00,
2013-01-23 10:04:00,67.0,-99.9,-100.00,NE,50,4.0,5.0,-999,-99.99,,,-99.99,,2013-01-23 18:04:00,
2013-01-23 14:00:00,76.0,-99.9,-100.00,WNW,286,0.0,12.0,-999,-99.99,,,-99.99,,2013-01-23 22:00:00,
2013-01-23 14:53:00,76.0,-99.9,-100.00,WNW,286,0.0,12.0,-999,-99.99,,,-99.99,,2013-01-23 22:53:00,
2013-01-23 16:50:00,71.0,-99.9,-100.00,West,278,4.0,6.0,-999,-99.99,,,-99.99,,2013-01-24 00:50:00,
2013-01-23 17:33:00,71.0,-99.9,-100.00,West,278,4.0,6.0,-999,-99.99,,,-99.99,,2013-01-24 01:33:00,
2013-01-23 17:43:00,71.0,-99.9,-100.00,West,278,4.0,6.0,-999,-99.99,,,-99.99,,2013-01-24 01:43:00,
2013-01-23 18:33:00,69.0,-99.9,-100.00,WNW,282,5.0,10.0,-999,-99.99,,,-99.99,,2013-01-24 02:33:00,
2013-01-23 18:43:00,69.0,-99.9,-100.00,WNW,282,5.0,10.0,-999,-99.99,,,-99.99,,2013-01-24 02:43:00,
2013-01-23 18:53:00,69.0,-99.9,-100.00,WNW,282,5.0,10.0,-999,-99.99,,,-99.99,,2013-01-24 02:53:00,
2013-01-23 19:33:00,67.0,-99.9,-100.00,NW,322,5.0,10.0,-999,-99.99,,,-99.99,,2013-01-24 03:33:00,
2013-01-23 19:43:00,67.0,-99.9,-100.00,NW,322,5.0,10.0,-999,-99.99,,,-99.99,,2013-01-24 03:43:00,
2013-01-23 19:53:00,67.0,-99.9,-100.00,NW,322,5.0,10.0,-999,-99.99,,,-99.99,,2013-01-24 03:53:00,
2013-01-23 20:33:00,66.0,-99.9,-100.00,NNW,342,9.0,9.0,-999,-99.99,,,-99.99,,2013-01-24 04:33:00,
2013-01-23 20:43:00,66.0,-99.9,-100.00,NNW,342,9.0,9.0,-999,-99.99,,,-99.99,,2013-01-24 04:43:00,
2013-01-23 20:53:00,66.0,-99.9,-100.00,NNW,342,9.0,9.0,-999,-99.99,,,-99.99,,2013-01-24 04:53:00,
2013-01-23 22:22:00,65.0,-99.9,-100.00,WNW,284,6.0,11.0,-999,-99.99,,,-99.99,,2013-01-24 06:22:00,
2013-01-23 22:30:00,66.0,-99.9,-100.00,WNW,293,9.0,9.0,-999,-99.99,,,-99.99,,2013-01-24 06:30:00,
2013-01-23 22:33:00,65.0,-99.9,-100.00,WNW,284,6.0,11.0,-999,-99.99,,,-99.99,,2013-01-24 06:33:00,
2013-01-23 23:03:00,66.0,-99.9,-100.00,WNW,293,9.0,9.0,-999,-99.99,,,-99.99,,2013-01-24 07:03:00,
2013-01-23 23:13:00,66.0,-99.9,-100.00,WNW,293,9.0,9.0,-999,-99.99,,,-99.99,,2013-01-24 07:13:00,
2013-01-23 23:23:00,66.0,-99.9,-100.00,WNW,293,9.0,9.0,-999,-99.99,,,-99.99,,2013-01-24 07:23:00,